STARLINK-32020, 60201

Orbit data source: Space-Track

STARLINK-32020, 60201 is a payload satellite owned by SpaceX/Seattle (US) in LEO that was launched on Wed, 03 Jul 2024 UTC via an FALCON 9 launch vehicle from the Air Force Eastern Test Range (AFETR). Payload-class satellites include a variety of spacecraft equipped with specific instruments for various scientific and technological missions. These include communications satellites like Starlink; space stations such as the ISS; scientific satellites like the Hubble; Earth observation satellites from companies like Planet Labs, Umbra, and HawkEye 360; GPS; miniature CubeSats for education and research; and military/defense satellites.

Loading next visibility...
Identifier
60201, 2024-124U
Orbit
LEO
Country
Flag of USUS
Related business
Manufacturer
SpaceX/Seattle
Mission
Operational Commercial Communications
Bus & Motor
STARLINK V2M, Unknown motor
Mass
730 kg wet, ~700 kg dry
Launch date (UTC)
2024-07-03 (2 years ago)
Launch vehicle
FALCON 9
Launch site
Air Force Eastern Test Range (AFETR)
Object type
Payload
Rocket body
Debris
Shape & HBR
Box + 2 Pan, 17.7 m
Radar Cross Section
33.884 m², Large (>1 m²)

Expand to show TLE details & history
Last TLE update: 9 hours ago

TLE from 9 hours ago
0 STARLINK-32020
1 60201U 24124U   26125.08549998  .00000889  00000-0  42130-4 0  9999
2 60201  53.1613  60.2893 0001379  86.6991 273.4168 15.30199164102932
Epoch: 2026-05-05T02:03Z
TLE epoch observation values (Epoch: 2026-05-05T02:03:07.198Z)
Latitude
0.00003°
Longitude
166.54392°
Altitude
476.061 km
Speed
7.629 km/s
True Right ascension
04h 01m 09s
True Declination
0° 00' 00"
Sunlit
Object was in daylight at epoch
Visualization orbit readout
Latitude
Unknown
Longitude
Unknown
Altitude
Unknown
Speed
Unknown
Apparent Right ascension
Unknown
Apparent Declination
Unknown
Sunlit
N/A
Visualization observer readout
Local Sidereal Time
19:06:19
Azimuth
Unknown
Elevation
Unknown
Doppler factor
Unknown
Orbital elements
Apogee altitude
476.419 km
Perigee altitude
474.529 km
Semi-major axis
6,853.611 km
Eccentricity
0.00014
Inclination
53.1613°
RAAN
60.2893°
Arg. of periapsis
86.6991°
True anomaly
273.40103°
Mean anomaly
273.4168°
Eccentric anomaly
273.40891°
Mean motion
3.82529 °/min
Orbital period
94.11 mins
BSTAR
0.00004213
Loading maneuver chart data...
Computing Atmospheric mass density...
Loading historical data...
Loading historical data...
Loading historical data...
Loading historical data...
Loading historical data...
Loading historical data...
Loading historical data...

Documentation

Showing up to 5 results
|